Temp
70 73 78 79 79 79 79 79 79 79 79 79 79 79 79 79 79 79 79 79 79 79 79 79 79 79 78 78 77 77 76 76 76 75 75 75 77 77 77 76 76 76 78
72 75 78 79 79 79 79 78 78 78 79 79 79 79 79 79 79 80 79 79 79 79 79 79 79 78 78 77 77 76 76 75 75 74 73 72 74 76 76 75 76 75 78
73 75 77 78 78 78 78 78 77 78 78 78 79 78 79 79 79 79 79 79 79 79 79 79 78 77 77 77 76 76 76 75 74 73 72 68 70 76 76 75 75 75 76
74 75 76 78 78 78 78 77 77 78 78 78 78 78 78 79 79 79 79 78 78 78 77 77 77 76 76 77 77 77 76 75 73 71 67 68 72 76 76 76 76 76 75
72 74 75 77 77 77 77 77 77 77 77 77 78 78 79 79 79 78 78 77 77 76 76 76 76 76 76 76 76 76 75 74 72 69 66 65 66 75 76 75 74 75 75
71 72 75 76 77 77 77 77 77 77 77 77 77 78 78 79 78 77 77 75 75 75 76 76 75 75 75 76 76 75 74 72 69 65 65 69 67 76 76 75 75 75 75
70 72 74 76 77 76 76 76 77 77 77 76 77 77 78 79 78 77 75 75 75 75 75 75 75 75 75 75 75 75 73 70 64 64 64 65 68 76 75 75 75 74 74
71 72 74 75 76 76 76 76 76 76 76 76 76 77 77 78 77 76 75 75 75 75 75 75 75 75 75 75 75 73 72 70 65 63 64 64 72 75 75 74 74 74 74
71 71 71 72 73 74 74 74 75 76 76 76 75 75 75 75 76 75 75 75 75 75 74 74 74 74 74 74 74 72 70 68 61 62 66 64 71 75 75 74 74 74 73
68 70 71 70 70 69 70 73 73 74 74 74 74 73 72 72 73 74 73 73 74 74 74 73 74 74 73 73 73 71 68 67 60 62 62 62 72 75 75 75 74 73 73
69 69 70 71 68 68 68 70 72 72 72 72 71 70 68 66 67 68 68 71 72 73 73 73 73 73 71 69 70 69 66 60 58 60 61 68 73 75 76 75 74 73 72
68 69 72 72 67 67 70 67 68 69 72 69 67 66 65 65 65 67 66 69 71 71 71 73 73 72 67 60 60 64 60 60 59 60 61 69 73 76 76 74 74 73 72
68 70 69 71 68 66 66 66 66 66 69 70 66 65 64 64 64 63 63 63 63 65 62 64 62 62 60 60 60 60 61 60 59 61 64 70 73 76 77 76 75 74 73
66 68 70 70 67 66 65 65 66 66 67 68 66 65 63 62 62 62 61 62 61 61 60 60 60 60 61 61 60 61 61 61 61 61 62 67 70 75 76 76 75 74 73
65 66 66 68 67 67 65 65 65 65 66 66 65 65 64 63 62 62 61 61 60 60 60 60 60 61 61 62 62 62 62 62 62 62 61 64 68 70 74 76 76 76 74
66 66 68 69 69 67 66 65 65 65 66 65 64 64 64 62 62 62 61 61 60 60 61 61 61 61 61 61 63 63 63 63 63 63 64 67 67 68 71 74 76 76 76
67 66 67 69 69 68 67 66 66 65 66 64 65 64 64 64 63 63 61 60 61 60 61 60 60 60 60 62 62 63 63 63 64 68 67 68 68 65 68 71 74 75 75
68 67 68 71 69 69 67 67 68 67 66 66 66 66 66 65 64 63 61 61 61 61 60 60 60 60 60 61 62 64 64 66 66 66 66 64 64 66 67 68 70 73 72
69 67 67 69 69 69 67 68 68 68 66 67 66 66 67 67 66 64 62 62 62 61 61 61 61 61 62 62 64 67 67 64 64 64 62 62 62 62 61 65 67 67 69
68 67 67 68 69 68 66 68 68 68 67 67 67 67 68 69 67 66 64 64 64 63 62 62 63 65 66 67 67 64 62 62 61 60 59 61 61 60 59 59 59 62 66
66 67 68 68 68 68 67 66 66 65 66 67 68 71 70 70 69 68 67 65 64 63 64 67 67 66 65 65 63 59 59 60 59 56 56 56 58 57 57 56 59 59 61
63 63 66 69 69 69 69 70 67 67 67 68 67 68 70 70 70 69 68 66 65 64 67 67 66 64 64 64 61 56 54 56 56 56 54 55 54 56 56 56 55 56 55
61 62 64 68 68 68 69 65 63 63 63 63 64 66 67 69 69 68 67 66 66 66 65 65 65 65 63 60 59 61 56 50 51 55 55 54 54 53 53 53 54 54 51
62 61 63 64 64 64 64 63 63 62 61 62 63 62 62 64 64 64 63 62 62 61 61 61 62 61 61 59 57 57 56 55 51 49 53 52 52 53 51 52 51 52 52
59 60 59 62 63 63 64 65 64 64 64 63 61 60 60 60 61 61 61 61 60 59 59 59 58 57 57 54 53 53 52 52 57 54 49 50 50 51 53 50 50 49 51
56 56 57 60 61 61 61 62 62 61 60 59 60 60 58 58 58 59 59 59 58 58 58 58 57 56 54 53 53 52 56 53 49 50 51 50 49 50 50 50 49 46 47
MSLP
1012.37 1012.41 1012.80 1013.14 1013.57 1013.87 1014.20 1014.53 1014.72 1014.85 1015.03 1015.12 1015.11 1015.19 1015.41 1015.65 1015.91 1016.29 1016.54 1016.74 1017.00 1017.18 1017.32 1017.59 1017.77 1017.90 1018.02 1018.07 1018.18 1018.38 1018.56 1018.66 1018.75 1018.82 1018.90 1018.90 1018.77 1018.73 1018.70 1018.56 1018.48 1018.28 1018.22
1012.28 1012.42 1012.74 1013.06 1013.54 1013.86 1014.16 1014.59 1014.90 1015.11 1015.22 1015.36 1015.35 1015.37 1015.61 1015.87 1016.12 1016.40 1016.70 1017.05 1017.30 1017.46 1017.61 1017.80 1017.97 1018.15 1018.30 1018.43 1018.54 1018.64 1018.80 1018.96 1019.09 1019.20 1019.27 1019.29 1019.18 1019.11 1019.13 1019.04 1018.86 1018.72 1018.54
1012.30 1012.60 1012.92 1013.10 1013.57 1014.03 1014.29 1014.59 1014.97 1015.28 1015.49 1015.59 1015.64 1015.70 1015.88 1016.10 1016.36 1016.68 1016.90 1017.29 1017.53 1017.70 1017.85 1018.01 1018.22 1018.45 1018.60 1018.70 1018.78 1018.87 1019.02 1019.17 1019.33 1019.43 1019.52 1019.59 1019.50 1019.40 1019.35 1019.36 1019.36 1019.26 1019.06
1012.32 1012.72 1013.12 1013.37 1013.70 1014.12 1014.57 1014.77 1015.04 1015.42 1015.79 1015.88 1015.85 1015.98 1016.20 1016.30 1016.65 1016.99 1017.26 1017.56 1017.75 1017.91 1018.10 1018.37 1018.52 1018.70 1018.79 1018.80 1018.89 1019.03 1019.21 1019.39 1019.57 1019.65 1019.78 1019.82 1019.70 1019.64 1019.61 1019.62 1019.63 1019.64 1019.63
1012.65 1012.94 1013.30 1013.55 1013.83 1014.22 1014.63 1014.98 1015.20 1015.53 1015.91 1016.15 1016.16 1016.23 1016.42 1016.54 1016.88 1017.29 1017.65 1017.97 1018.11 1018.28 1018.46 1018.66 1018.80 1018.89 1018.99 1019.00 1019.06 1019.19 1019.36 1019.54 1019.73 1019.86 1020.01 1020.05 1019.96 1019.83 1019.81 1019.86 1019.87 1019.85 1019.82
1012.95 1013.03 1013.50 1013.73 1014.09 1014.43 1014.70 1015.13 1015.44 1015.66 1015.97 1016.30 1016.50 1016.53 1016.66 1016.84 1017.19 1017.66 1017.97 1018.32 1018.49 1018.62 1018.80 1018.95 1019.13 1019.23 1019.27 1019.31 1019.36 1019.46 1019.65 1019.84 1020.04 1020.15 1020.20 1020.15 1020.13 1019.94 1019.97 1020.06 1020.08 1020.08 1020.07
1013.17 1013.25 1013.69 1013.93 1014.28 1014.67 1014.93 1015.26 1015.65 1015.93 1016.16 1016.43 1016.65 1016.81 1016.94 1017.09 1017.49 1017.91 1018.31 1018.59 1018.69 1018.87 1019.06 1019.23 1019.39 1019.55 1019.57 1019.65 1019.69 1019.76 1019.83 1019.99 1020.19 1020.31 1020.40 1020.43 1020.33 1020.25 1020.30 1020.32 1020.36 1020.35 1020.31
1013.07 1013.46 1013.79 1014.13 1014.48 1014.86 1015.24 1015.44 1015.73 1016.09 1016.38 1016.68 1016.91 1017.06 1017.23 1017.42 1017.74 1018.07 1018.46 1018.75 1018.87 1018.99 1019.17 1019.38 1019.56 1019.70 1019.72 1019.83 1019.92 1020.07 1020.21 1020.29 1020.46 1020.63 1020.63 1020.60 1020.39 1020.35 1020.43 1020.54 1020.58 1020.56 1020.50
1013.16 1013.66 1014.11 1014.37 1014.67 1014.99 1015.46 1015.73 1015.90 1016.20 1016.53 1016.85 1017.14 1017.36 1017.55 1017.77 1018.01 1018.16 1018.46 1018.83 1019.02 1019.16 1019.33 1019.46 1019.66 1019.85 1020.00 1020.11 1020.20 1020.31 1020.38 1020.51 1020.66 1020.76 1020.74 1020.80 1020.61 1020.44 1020.52 1020.60 1020.70 1020.75 1020.75
1013.58 1013.81 1014.30 1014.71 1014.99 1015.25 1015.56 1015.90 1016.08 1016.38 1016.73 1017.06 1017.36 1017.64 1017.82 1018.09 1018.38 1018.57 1018.65 1018.90 1019.19 1019.34 1019.60 1019.77 1019.89 1019.90 1020.03 1020.23 1020.40 1020.42 1020.52 1020.58 1020.73 1020.80 1020.88 1020.88 1020.68 1020.49 1020.53 1020.55 1020.67 1020.73 1020.78
1014.17 1014.22 1014.42 1014.88 1015.25 1015.51 1015.78 1015.94 1016.23 1016.46 1016.85 1017.15 1017.55 1017.90 1018.15 1018.37 1018.59 1018.94 1019.24 1019.26 1019.34 1019.46 1019.67 1019.86 1020.03 1020.15 1020.22 1020.29 1020.36 1020.54 1020.65 1020.80 1020.83 1020.89 1020.79 1020.67 1020.59 1020.51 1020.47 1020.52 1020.64 1020.75 1020.89
1014.46 1014.43 1014.61 1014.77 1015.36 1015.72 1015.83 1016.19 1016.46 1016.70 1016.95 1017.33 1017.69 1018.05 1018.37 1018.55 1018.76 1019.06 1019.31 1019.52 1019.70 1019.79 1019.88 1019.97 1020.08 1020.25 1020.41 1020.55 1020.62 1020.57 1020.76 1020.80 1020.81 1020.84 1020.78 1020.62 1020.57 1020.48 1020.44 1020.61 1020.66 1020.70 1020.87
1014.45 1014.54 1014.60 1014.83 1015.42 1015.66 1015.96 1016.32 1016.67 1016.97 1017.15 1017.40 1017.82 1018.16 1018.51 1018.79 1018.98 1019.23 1019.48 1019.62 1019.81 1019.90 1020.21 1020.27 1020.36 1020.48 1020.66 1020.76 1020.76 1020.80 1020.77 1020.75 1020.78 1020.75 1020.66 1020.55 1020.46 1020.38 1020.35 1020.38 1020.44 1020.49 1020.64
1014.59 1014.61 1014.68 1014.92 1015.43 1015.75 1015.98 1016.30 1016.65 1017.07 1017.35 1017.49 1017.86 1018.17 1018.53 1018.92 1019.16 1019.34 1019.54 1019.69 1019.93 1020.08 1020.21 1020.25 1020.39 1020.47 1020.56 1020.65 1020.82 1020.85 1020.78 1020.78 1020.74 1020.69 1020.60 1020.49 1020.42 1020.33 1020.26 1020.26 1020.34 1020.40 1020.50
1015.25 1014.67 1014.84 1014.99 1015.53 1015.76 1016.17 1016.30 1016.61 1016.93 1017.27 1017.48 1017.80 1018.15 1018.43 1018.70 1018.97 1019.23 1019.51 1019.70 1019.82 1019.95 1020.10 1020.28 1020.30 1020.35 1020.38 1020.48 1020.53 1020.64 1020.62 1020.62 1020.60 1020.62 1020.54 1020.40 1020.21 1020.14 1020.09 1020.11 1020.20 1020.18 1020.20
1013.66 1014.69 1014.59 1014.41 1014.61 1015.48 1016.27 1016.65 1016.70 1016.84 1016.99 1017.33 1017.65 1017.89 1018.25 1018.54 1018.76 1019.05 1019.25 1019.51 1019.82 1019.87 1019.96 1020.06 1020.09 1020.21 1020.26 1020.21 1020.26 1020.26 1020.31 1020.35 1020.31 1020.26 1020.14 1020.00 1019.94 1019.89 1019.99 1019.86 1019.93 1019.93 1020.01
1013.27 1014.16 1014.00 1013.83 1013.68 1014.69 1015.58 1016.40 1016.81 1016.96 1017.17 1017.40 1017.43 1017.58 1017.89 1018.18 1018.50 1018.72 1019.01 1019.29 1019.40 1019.64 1019.84 1020.15 1020.24 1020.24 1020.25 1020.15 1020.20 1020.07 1020.08 1020.02 1019.93 1019.80 1019.69 1019.61 1019.53 1019.59 1019.58 1019.70 1019.72 1019.72 1019.88
1013.66 1013.56 1013.89 1013.45 1013.90 1014.19 1014.90 1015.82 1016.55 1016.92 1017.15 1017.26 1017.40 1017.40 1017.44 1017.63 1017.98 1018.40 1018.71 1018.97 1019.14 1019.46 1019.75 1020.03 1020.26 1020.29 1020.21 1020.13 1019.97 1019.80 1019.70 1019.63 1019.59 1019.52 1019.51 1019.50 1019.44 1019.41 1019.36 1019.45 1019.44 1019.48 1019.69
1012.16 1012.75 1013.53 1013.51 1014.02 1014.80 1015.51 1015.42 1015.88 1016.32 1016.56 1016.73 1017.20 1017.32 1017.01 1017.09 1017.51 1017.92 1018.28 1018.38 1018.66 1019.07 1019.36 1019.73 1020.05 1020.03 1020.06 1019.90 1019.79 1019.59 1019.41 1019.53 1019.44 1019.48 1019.64 1019.55 1019.52 1019.32 1019.43 1019.36 1019.16 1019.51 1019.72
1012.64 1012.57 1012.80 1013.54 1013.81 1014.63 1014.92 1015.68 1015.93 1015.86 1016.24 1016.27 1016.30 1016.53 1016.55 1016.54 1017.03 1017.52 1017.81 1018.20 1018.40 1018.71 1018.87 1019.37 1019.61 1019.69 1019.68 1019.51 1019.45 1019.47 1019.55 1019.49 1019.36 1019.43 1019.66 1019.49 1019.40 1019.40 1019.48 1019.66 1019.70 1019.91 1019.96
1011.81 1012.06 1012.39 1012.75 1013.03 1013.54 1013.54 1014.32 1014.66 1015.38 1015.65 1015.71 1015.69 1015.55 1015.76 1015.83 1016.33 1016.98 1017.19 1017.59 1018.22 1018.48 1018.36 1018.69 1019.06 1019.29 1019.39 1019.43 1019.62 1019.75 1019.67 1019.38 1019.49 1019.72 1019.75 1019.61 1019.47 1019.69 1019.84 1020.13 1020.22 1020.36 1020.57
1011.72 1012.08 1012.31 1012.64 1013.18 1013.23 1013.58 1013.64 1014.13 1014.19 1014.39 1014.60 1014.93 1015.12 1015.34 1015.27 1015.65 1016.15 1016.65 1016.93 1017.36 1017.94 1018.17 1018.35 1018.65 1019.00 1019.11 1019.27 1019.79 1020.19 1020.16 1019.91 1019.77 1019.89 1019.97 1019.99 1020.06 1020.05 1020.32 1020.59 1020.72 1020.83 1021.02
1012.16 1012.05 1012.02 1012.07 1012.51 1012.95 1013.20 1013.81 1014.13 1014.40 1014.93 1015.02 1015.01 1015.00 1015.01 1014.86 1015.03 1015.61 1015.92 1016.59 1017.04 1017.42 1017.80 1017.99 1018.35 1018.78 1019.15 1019.56 1019.64 1020.00 1020.31 1020.58 1020.53 1020.12 1020.08 1020.07 1020.24 1020.49 1020.68 1020.87 1021.13 1021.12 1021.09
1011.60 1011.79 1012.04 1012.14 1012.35 1012.66 1012.59 1013.63 1013.73 1014.47 1014.74 1015.06 1015.36 1015.40 1015.26 1014.98 1014.66 1015.17 1015.96 1016.69 1017.22 1017.62 1018.07 1018.28 1018.52 1018.75 1019.10 1019.42 1019.72 1019.82 1020.15 1020.44 1020.71 1020.84 1020.51 1020.49 1020.37 1020.37 1020.88 1021.00 1021.45 1021.36 1021.27
1011.30 1011.47 1011.92 1012.13 1012.19 1012.16 1012.20 1012.20 1012.88 1013.72 1014.10 1014.14 1014.66 1015.06 1015.73 1016.02 1016.05 1015.82 1015.65 1016.29 1016.82 1017.40 1017.95 1018.33 1018.84 1019.10 1019.29 1019.54 1019.89 1020.18 1020.27 1020.26 1020.66 1020.89 1020.80 1020.78 1020.86 1020.89 1021.02 1021.08 1021.39 1021.52 1021.44
1011.87 1012.23 1012.29 1012.05 1012.09 1012.33 1012.64 1013.05 1013.05 1013.43 1013.69 1013.97 1014.44 1014.64 1014.74 1015.58 1016.07 1016.19 1016.69 1016.50 1016.67 1016.94 1017.51 1018.47 1018.74 1018.98 1018.84 1019.38 1019.84 1020.16 1020.33 1020.41 1020.40 1020.60 1020.82 1020.72 1020.94 1020.98 1021.22 1021.35 1021.53 1021.72 1021.71
Wind_Speed
9 10 19 19 19 17 15 14 13 14 14 13 13 16 19 20 21 20 19 19 17 18 18 18 18 17 17 17 17 15 15 15 16 17 16 14 14 14 15 15 13 12 19
10 12 18 19 19 17 16 14 12 14 12 13 13 16 19 21 21 20 19 18 17 17 18 17 17 16 15 14 14 14 14 14 15 14 12 11 12 14 14 15 15 11 15
13 11 14 18 17 16 16 16 13 14 14 12 13 16 19 20 20 19 17 18 17 17 17 17 16 14 12 10 10 12 13 13 12 11 11 5 6 14 15 14 13 13 12
12 10 10 17 17 17 16 16 16 16 14 13 13 15 16 19 19 17 17 17 16 16 16 15 14 13 12 12 11 13 13 11 11 11 5 5 5 13 14 14 14 14 13
9 8 10 17 17 17 16 16 17 16 15 13 12 12 13 18 18 16 16 15 15 14 14 14 13 12 12 13 13 13 12 11 10 7 5 5 4 10 14 13 12 13 13
6 7 13 16 16 16 14 17 17 16 16 15 12 12 11 14 16 15 15 13 12 13 13 12 12 11 11 10 12 12 11 10 8 5 5 6 4 11 13 13 13 13 13
7 8 9 16 16 15 14 16 15 16 15 15 14 14 13 13 15 15 13 12 12 12 11 11 10 9 9 9 11 10 9 8 5 4 4 3 3 9 11 11 12 12 12
10 9 9 14 14 13 11 14 15 15 15 15 14 14 14 15 15 15 13 11 11 11 10 9 8 7 8 9 9 9 7 6 4 4 3 2 2 6 8 9 9 10 11
9 8 6 8 9 12 9 8 12 16 15 14 13 13 12 12 13 14 13 11 10 10 9 9 8 6 6 8 7 7 6 5 4 2 2 1 4 3 4 5 6 8 10
5 8 9 6 6 6 5 8 9 14 13 13 11 10 9 9 9 11 9 9 9 8 6 5 5 6 6 6 6 6 6 6 3 2 1 1 4 2 2 3 3 5 7
5 6 8 7 6 5 5 5 5 9 11 11 9 9 7 4 5 6 4 6 6 6 6 4 3 3 4 5 5 5 5 2 2 1 1 4 4 3 3 5 2 2 3
8 8 8 9 6 6 4 5 4 3 5 5 5 6 4 5 4 4 5 5 4 4 3 3 2 2 4 2 2 3 1 1 0 1 2 6 5 4 2 2 2 2 1
7 6 8 8 5 6 5 3 2 2 2 4 5 5 4 3 3 3 2 2 2 2 1 2 2 2 1 1 2 2 1 1 1 2 3 7 7 5 4 3 4 6 5
5 5 6 6 5 5 4 4 4 3 2 3 4 5 4 3 3 3 3 3 3 2 3 3 2 1 1 1 2 3 3 3 2 2 3 6 8 8 7 6 5 5 5
12 8 7 6 4 4 3 4 4 4 4 4 4 5 4 4 4 4 3 3 3 3 3 3 3 2 2 2 3 3 4 4 4 3 2 6 7 8 10 9 7 8 5
2 1 6 10 10 7 5 3 3 4 5 4 4 5 6 4 4 4 4 4 3 3 3 3 3 3 3 2 3 4 4 4 4 5 3 3 6 8 8 11 10 9 6
19 15 15 12 11 9 9 5 3 2 3 3 5 6 7 6 5 5 4 4 4 4 4 2 2 1 2 2 4 4 4 5 4 4 4 3 3 2 6 10 9 9 4
16 16 11 6 4 7 10 6 3 4 3 4 4 5 8 7 7 5 4 4 4 3 3 2 3 3 3 3 3 4 4 4 5 5 3 2 2 2 3 4 5 6 3
16 14 12 5 4 3 5 6 4 5 4 5 4 5 7 8 8 6 4 4 5 4 4 3 3 3 3 4 4 4 3 3 3 2 4 3 5 3 2 3 7 7 6
7 8 9 10 14 7 4 6 7 5 3 5 6 7 7 6 7 7 4 5 4 4 4 3 5 4 3 3 2 3 3 3 3 2 4 3 4 1 2 4 4 4 9
9 8 12 14 16 13 10 9 7 7 8 6 7 9 8 7 8 8 6 5 5 4 5 5 3 5 4 1 2 3 3 4 3 3 3 3 1 2 4 4 3 3 5
5 6 10 13 16 12 8 7 4 5 6 7 6 6 7 9 9 8 6 7 7 4 4 4 4 2 1 1 1 1 4 4 3 3 3 3 3 3 4 4 5 4 4
6 8 8 14 12 14 10 2 3 3 2 3 3 5 6 8 8 7 8 6 5 5 4 4 4 3 1 1 2 2 2 3 2 2 2 3 4 3 4 4 4 3 5
7 4 5 7 6 6 12 6 4 3 2 1 1 2 3 2 6 6 5 2 3 3 1 1 1 2 4 4 1 1 1 2 2 4 2 2 1 4 4 3 3 3 4
3 4 4 5 6 5 7 10 10 10 9 6 5 7 2 4 5 0 7 9 7 4 2 2 3 2 2 2 2 1 1 1 4 4 4 2 2 3 2 3 3 2 3
5 2 4 3 3 5 4 1 4 4 4 4 5 6 6 4 3 2 1 1 3 5 6 3 3 5 3 2 2 2 4 3 2 3 5 4 3 1 1 1 3 3 2
Wind_Direction
162 153 154 148 143 139 136 131 139 127 119 115 109 124 125 121 120 119 115 105 109 111 109 108 107 103 99 95 92 91 85 83 74 70 63 60 65 62 50 47 40 38 61
141 149 154 149 147 144 139 138 140 133 132 117 115 118 121 123 119 119 113 113 113 112 112 114 112 107 99 97 97 96 95 93 83 70 63 50 58 62 58 46 38 47 46
141 149 153 150 146 144 136 140 138 123 116 127 121 117 123 124 119 115 118 115 116 116 116 113 109 104 98 96 106 108 105 97 79 73 67 59 60 69 66 63 58 52 42
139 144 149 148 145 140 139 142 135 128 131 134 130 125 127 121 119 122 116 120 121 119 118 116 111 101 94 94 97 120 112 98 87 77 64 54 64 72 66 61 56 54 48
132 136 148 150 145 139 143 146 136 133 136 136 132 128 125 124 123 121 119 122 123 121 122 120 113 104 97 96 100 110 113 104 90 81 78 75 58 72 69 67 60 53 50
124 125 151 147 143 139 145 142 139 138 138 138 137 133 130 124 119 125 125 123 124 124 126 123 116 108 101 99 104 108 112 104 90 79 68 67 72 75 68 61 56 53 49
134 129 144 145 142 140 149 147 144 141 139 141 143 141 140 140 131 136 127 128 124 123 121 119 114 107 99 94 101 109 117 110 103 94 82 67 64 70 64 59 53 49 47
129 129 141 143 141 139 153 155 150 142 141 143 145 147 146 145 140 141 137 135 130 127 125 122 117 110 102 93 89 92 100 107 85 87 81 50 30 77 68 60 53 48 47
124 127 126 133 133 135 147 151 161 146 145 147 148 148 146 145 146 147 145 144 139 132 130 128 125 112 95 93 88 76 81 90 109 103 87 7 321 77 74 74 57 46 44
120 123 125 121 118 121 136 156 158 153 148 149 149 141 137 141 150 150 144 149 148 141 138 134 129 120 104 84 78 81 84 76 112 102 42 284 301 333 353 2 96 57 48
141 138 132 135 127 131 140 158 165 146 148 141 138 137 125 121 120 118 131 144 145 150 153 150 135 112 95 64 62 68 82 73 99 222 246 270 274 296 337 354 130 85 54
165 154 159 154 142 140 137 139 140 140 149 134 137 140 138 141 141 140 152 158 160 158 159 164 140 81 63 43 360 47 70 54 100 243 251 265 264 279 316 336 246 240 209
171 168 161 154 155 149 144 142 137 139 141 141 145 143 147 139 143 141 146 148 144 140 69 41 36 52 13 10 1 346 330 320 262 268 276 268 258 267 277 262 282 222 215
207 162 139 151 158 164 142 156 153 152 160 154 160 156 152 154 167 171 172 175 174 173 182 181 180 190 236 278 293 305 296 287 284 275 279 289 278 275 278 264 264 238 224
206 184 174 154 170 172 180 166 162 172 174 171 166 176 166 169 177 169 186 190 192 182 193 203 197 202 224 257 253 251 276 280 276 267 268 272 268 274 270 280 274 266 255
106 115 181 183 179 170 185 246 214 184 182 172 176 190 190 187 186 187 182 196 213 202 206 200 197 213 231 221 255 240 255 263 268 277 261 253 267 273 277 263 261 265 291
174 179 208 206 152 168 178 179 211 208 187 204 206 194 194 189 193 187 188 200 211 204 202 222 243 239 240 232 249 250 249 247 240 234 235 215 241 273 274 269 260 261 273
183 191 190 188 231 181 164 157 181 205 211 208 227 202 196 192 189 188 188 210 205 196 196 202 207 220 229 216 242 244 243 242 264 270 277 287 274 270 273 289 257 232 112
187 173 181 108 278 192 200 158 197 216 207 212 206 234 202 194 189 186 196 209 187 181 189 193 214 204 218 222 236 249 251 278 286 316 283 295 274 264 253 252 149 130 113
184 169 159 178 208 203 188 154 193 233 230 245 229 213 205 193 185 186 187 205 186 179 184 192 214 210 239 242 271 306 299 291 285 296 304 293 271 281 124 112 84 90 96
213 192 183 183 199 206 196 192 184 194 212 219 227 212 200 193 185 192 198 179 187 195 197 194 193 209 236 163 333 344 296 280 321 3 342 303 311 93 97 92 87 68 66
214 200 217 206 214 214 221 203 204 216 220 234 205 214 214 194 186 183 197 197 184 190 198 194 180 190 180 127 183 137 319 330 8 24 30 29 70 91 94 81 82 91 81
227 202 196 211 215 218 213 152 67 69 1 213 222 213 209 187 174 176 181 176 182 180 184 173 158 194 216 44 124 211 283 252 313 332 44 85 103 90 100 102 86 94 100
247 242 231 217 199 197 146 161 193 227 192 145 235 320 306 258 144 141 134 123 75 64 65 347 60 158 164 204 30 241 149 159 230 318 352 24 91 132 138 115 122 114 97
278 259 226 240 226 190 191 188 187 198 205 174 160 142 144 321 336 34 145 164 153 138 123 161 184 154 109 129 165 161 216 223 255 237 278 273 22 21 97 143 134 119 108
8 338 261 225 297 12 23 290 201 221 198 183 188 169 163 159 156 119 276 108 149 139 142 186 167 185 143 151 182 191 225 229 197 198 249 256 226 179 120 138 138 137 132